Breckenridge, MN

2:48 PM CST on December 02, 2016 (GMT -0600)
Stern

Weather History for KBWP - January, 2013

Change the Weather History Date:

Wednesday, January 23, 2013

  Actual Average (KFFM) Record (KFFM)
Temperature  
Mean Temperature -2 °F -  
Max Temperature 8 °F 20 °F 40 °F (1981)
Min Temperature -13 °F 0 °F -30 °F (1966)
Degree Days  
Heating Degree Days 68    
Moisture  
Dew Point -9 °F    
Average Humidity 71    
Maximum Humidity 85    
Minimum Humidity 55    
Precipitation  
Precipitation 0.00 in - - ()
Sea Level Pressure  
Sea Level Pressure 30.39 in    
Wind  
Wind Speed 11 mph (NNW)    
Max Wind Speed 25 mph    
Max Gust Speed 31 mph    
Visibility 8 miles    
Events      
Averages and records for this station are not official NWS values.
T = Trace of Precipitation, MM = Missing Value Source: NWS Daily Summary

Daily Weather History Graph

Daily Weather History Graph

Search for Another Location

Airport or City:

Trip Planner

Search our weather history database for the weather conditions in past years. The results will help you decide how hot, cold, wet, or windy it might be!

Date:

Astronomy

Jan. 23, 2013 Rise Set
Actual Time 7:58 AM CST 5:18 PM CST
Civil Twilight 7:25 AM CST 5:51 PM CST
Nautical Twilight 6:49 AM CST 6:28 PM CST
Astronomical Twilight 6:13 AM CST 7:03 PM CST
Moon 2:27 PM CST (1/23) 5:14 AM CST (1/23)
Length of Visible Light 10h 25m
Length of Day
9h 19m
Waxing Gibbous, 89% of the Moon is Illuminated
Jan 23
Waxing Gibbous
Jan 26
Full
Feb 3
Last Quarter
Feb 10
New
Feb 17
First Quarter

Hourly Weather History & Observations

Time (CST) Temp. Windchill Dew Point Humidity Pressure Visibility Wind Dir Wind Speed Gust Speed Precip Events Conditions
12:15 AM 8.6 °F -1.3 °F 3.2 °F 79% 30.16 in 10.0 mi South 5.8 mph - N/A   Overcast
12:35 AM 8.6 °F 0.1 °F 3.2 °F 79% 30.16 in 10.0 mi South 4.6 mph - N/A   Overcast
12:55 AM 8.6 °F -1.3 °F 3.2 °F 79% 30.16 in 10.0 mi South 5.8 mph - N/A   Overcast
1:15 AM 8.6 °F -2.6 °F 3.2 °F 79% 30.16 in 10.0 mi South 6.9 mph - N/A   Overcast
1:35 AM 8.6 °F -2.6 °F 3.2 °F 79% 30.16 in 10.0 mi South 6.9 mph - N/A   Overcast
1:55 AM 8.6 °F -2.6 °F 3.2 °F 79% 30.15 in 10.0 mi South 6.9 mph - N/A   Overcast
2:15 AM 8.6 °F -1.3 °F 3.2 °F 79% 30.14 in 10.0 mi South 5.8 mph - N/A   Overcast
2:35 AM 8.6 °F -1.3 °F 3.2 °F 79% 30.14 in 7.0 mi South 5.8 mph - N/A   Overcast
2:55 AM 8.6 °F -1.3 °F 3.2 °F 79% 30.15 in 7.0 mi SSW 5.8 mph - N/A   Overcast
3:15 AM 8.6 °F -1.3 °F 3.2 °F 79% 30.15 in 5.0 mi SSW 5.8 mph - N/A   Overcast
3:35 AM 8.6 °F 0.1 °F 3.2 °F 79% 30.14 in 4.0 mi SSW 4.6 mph - N/A   Overcast
3:55 AM 5.0 °F -5.6 °F 1.4 °F 85% 30.14 in 5.0 mi SSW 5.8 mph - N/A   Mostly Cloudy
4:15 AM 5.0 °F -2.1 °F 1.4 °F 85% 30.14 in 10.0 mi SW 3.5 mph - N/A   Scattered Clouds
4:35 AM 3.2 °F -4.2 °F -0.4 °F 85% 30.15 in 10.0 mi SW 3.5 mph - N/A   Scattered Clouds
4:55 AM 3.2 °F -6.2 °F -0.4 °F 85% 30.15 in 10.0 mi West 4.6 mph - N/A   Overcast
5:15 AM 1.4 °F -12.5 °F -2.2 °F 85% 30.16 in 10.0 mi WNW 8.1 mph - N/A   Mostly Cloudy
5:35 AM 5.0 °F -10.0 °F 1.4 °F 85% 30.16 in 10.0 mi NW 10.4 mph - N/A   Clear
6:35 AM 5.0 °F -13.0 °F -0.4 °F 78% 30.19 in 10.0 mi NNW 15.0 mph - N/A   Scattered Clouds
6:55 AM 5.0 °F -12.3 °F -0.4 °F 78% 30.20 in 10.0 mi NNW 13.8 mph 19.6 mph N/A   Clear
7:15 AM 3.2 °F -15.3 °F -0.4 °F 85% 30.21 in 10.0 mi NNW 15.0 mph - N/A   Clear
7:35 AM 3.2 °F -16.5 °F -2.2 °F 78% 30.23 in 10.0 mi NNW 17.3 mph - N/A   Clear
7:55 AM 3.2 °F -16.5 °F -4.0 °F 72% 30.24 in 10.0 mi NNW 17.3 mph 23.0 mph N/A   Clear
8:15 AM 3.2 °F -17.1 °F -4.0 °F 72% 30.24 in 10.0 mi NNW 18.4 mph 23.0 mph N/A   Clear
8:35 AM 1.4 °F -18.2 °F -4.0 °F 78% 30.26 in 10.0 mi NNW 16.1 mph 21.9 mph N/A   Clear
8:55 AM 1.4 °F -19.4 °F -5.8 °F 72% 30.27 in 10.0 mi NNW 18.4 mph 25.3 mph N/A   Clear
9:15 AM 1.4 °F -18.2 °F -5.8 °F 72% 30.29 in 10.0 mi NNW 16.1 mph 24.2 mph N/A   Clear
9:35 AM 1.4 °F -18.8 °F -5.8 °F 72% 30.31 in 10.0 mi NNW 17.3 mph 24.2 mph N/A   Clear
9:55 AM 1.4 °F -17.6 °F -5.8 °F 72% 30.33 in 10.0 mi NNW 15.0 mph 23.0 mph N/A   Clear
10:15 AM 1.4 °F -18.2 °F -5.8 °F 72% 30.35 in 10.0 mi NNW 16.1 mph 25.3 mph N/A   Clear
10:35 AM 1.4 °F -19.9 °F -7.6 °F 66% 30.36 in 10.0 mi North 19.6 mph 28.8 mph N/A   Mostly Cloudy
10:55 AM 1.4 °F -21.0 °F -7.6 °F 66% 30.38 in 10.0 mi NNW 21.9 mph 29.9 mph N/A   Overcast
11:15 AM 1.4 °F -21.0 °F -5.8 °F 72% 30.40 in 7.0 mi North 21.9 mph 26.5 mph N/A   Overcast
11:35 AM 1.4 °F -22.3 °F -9.4 °F 61% 30.40 in 4.0 mi NNW 25.3 mph 31.1 mph N/A   Overcast
11:55 AM 1.4 °F -20.5 °F -5.8 °F 72% 30.40 in 2.5 mi North 20.7 mph 25.3 mph N/A   Overcast
12:15 PM 1.4 °F -21.9 °F -5.8 °F 72% 30.40 in 1.8 mi North 24.2 mph 28.8 mph N/A   Overcast
12:35 PM -0.4 °F -21.7 °F -7.6 °F 72% 30.41 in 2.0 mi North 18.4 mph 31.1 mph N/A   Overcast
12:55 PM -0.4 °F -22.8 °F -7.6 °F 72% 30.42 in 1.8 mi North 20.7 mph 27.6 mph N/A   Overcast
1:15 PM -0.4 °F -24.7 °F -9.4 °F 66% 30.42 in 1.8 mi North 25.3 mph 31.1 mph N/A   Overcast
1:35 PM 1.4 °F -21.0 °F -9.4 °F 61% 30.43 in 10.0 mi North 21.9 mph 28.8 mph N/A   Mostly Cloudy
1:55 PM -0.4 °F -23.8 °F -9.4 °F 66% 30.44 in 10.0 mi North 23.0 mph 27.6 mph N/A   Mostly Cloudy
2:15 PM -0.4 °F -22.8 °F -13.0 °F 55% 30.45 in 10.0 mi NNW 20.7 mph 29.9 mph N/A   Mostly Cloudy
2:35 PM -0.4 °F -23.3 °F -11.2 °F 60% 30.46 in 10.0 mi NNW 21.9 mph 29.9 mph N/A   Scattered Clouds
2:55 PM -0.4 °F -22.3 °F -11.2 °F 60% 30.47 in 10.0 mi NNW 19.6 mph 28.8 mph N/A   Mostly Cloudy
3:15 PM -2.2 °F -23.5 °F -13.0 °F 60% 30.49 in 7.0 mi North 17.3 mph 28.8 mph N/A   Overcast
3:35 PM -4.0 °F -25.2 °F -9.4 °F 78% 30.51 in 1.8 mi North 16.1 mph 24.2 mph N/A   Overcast
3:55 PM -4.0 °F -25.8 °F -11.2 °F 71% 30.52 in 1.5 mi North 17.3 mph 25.3 mph N/A   Overcast
4:15 PM -5.8 °F -29.4 °F -11.2 °F 77% 30.53 in 1.2 mi North 19.6 mph - N/A   Overcast
4:35 PM -5.8 °F -27.5 °F -13.0 °F 71% 30.54 in 5.0 mi North 16.1 mph 24.2 mph N/A   Overcast
4:55 PM -5.8 °F -26.8 °F -13.0 °F 71% 30.56 in 3.0 mi North 15.0 mph 24.2 mph N/A   Overcast
5:15 PM -5.8 °F -27.5 °F -13.0 °F 71% 30.56 in 7.0 mi North 16.1 mph 19.6 mph N/A   Overcast
5:35 PM -5.8 °F -27.5 °F -16.6 °F 60% 30.56 in 10.0 mi North 16.1 mph 21.9 mph N/A   Mostly Cloudy
5:55 PM -7.6 °F -31.7 °F -16.6 °F 65% 30.57 in 10.0 mi NNW 19.6 mph 24.2 mph N/A   Scattered Clouds
6:15 PM -7.6 °F -29.8 °F -18.4 °F 59% 30.58 in 10.0 mi NNW 16.1 mph 21.9 mph N/A   Clear
6:35 PM -7.6 °F -29.8 °F -16.6 °F 65% 30.58 in 10.0 mi North 16.1 mph - N/A   Clear
6:55 PM -7.6 °F -29.8 °F -18.4 °F 59% 30.58 in 10.0 mi North 16.1 mph 24.2 mph N/A   Clear
7:15 PM -7.6 °F -27.5 °F -18.4 °F 59% 30.59 in 10.0 mi North 12.7 mph 23.0 mph N/A   Clear
7:55 PM -9.4 °F -26.8 °F -18.4 °F 65% 30.61 in 10.0 mi North 9.2 mph - N/A   Scattered Clouds
8:15 PM -9.4 °F -28.9 °F -18.4 °F 65% 30.61 in 10.0 mi North 11.5 mph - N/A   Clear
8:35 PM -11.2 °F -30.1 °F -22.0 °F 59% 30.61 in 10.0 mi North 10.4 mph 18.4 mph N/A   Clear
8:55 PM -11.2 °F -33.7 °F -22.0 °F 59% 30.62 in 10.0 mi North 15.0 mph - N/A   Clear
9:15 PM -13.0 °F -35.2 °F -22.0 °F 64% 30.62 in 10.0 mi North 13.8 mph - N/A   Clear
9:35 PM -13.0 °F -32.4 °F -22.0 °F 64% 30.63 in 10.0 mi North 10.4 mph - N/A   Clear
9:55 PM -13.0 °F -33.4 °F -22.0 °F 64% 30.63 in 10.0 mi NNE 11.5 mph - N/A   Clear
10:15 PM -13.0 °F -31.3 °F -22.0 °F 64% 30.64 in 10.0 mi North 9.2 mph - N/A   Clear
10:35 PM -13.0 °F -33.4 °F -22.0 °F 64% 30.65 in 10.0 mi NNE 11.5 mph - N/A   Clear
10:55 PM -13.0 °F -32.4 °F -22.0 °F 64% 30.65 in 10.0 mi North 10.4 mph - N/A   Clear
11:15 PM -13.0 °F -28.6 °F -22.0 °F 64% 30.65 in 10.0 mi NNE 6.9 mph - N/A   Clear
11:35 PM -13.0 °F -30.0 °F -22.0 °F 64% 30.65 in 10.0 mi NNE 8.1 mph - N/A   Clear
11:55 PM -13.0 °F -27.0 °F -22.0 °F 64% 30.65 in 10.0 mi North 5.8 mph - N/A   Clear